Regional Weather Roundup
Issued by NWS

Home | Current Version | Previous Version | Graphics & Text | Print | Product List | Glossary On
Versions: 1 2 3 4 5 6 7 8 9 10 11 12 13 14 15 16 17 18 19 20 21 22 23 24 25 26 27 28 29 30 31 32 33 34 35 36 37 38 39 40 41 42 43 44 45 46 47 48 49 50
000
ASUS45 KTFX 270319
RWRMT
MONTANA HOURLY WEATHER ROUNDUP
NATIONAL WEATHER SERVICE GREAT FALLS MT
919 PM MDT THU MAR 26 2015

NOTE: "FAIR" INDICATES FEW OR NO CLOUDS BELOW 12000 FEET WITH NO
SIGNIFICANT WEATHER AND/OR OBSTRUCTIONS TO VISIBILITY.

* THESE STATIONS ARE NOT UNDER NWS QUALITY CONTROL. THEY DO NOT
   REPORT WEATHER SUCH AS PRECIPITATION OR FOG.

MTZ001>007-043-270400-
WEST OF THE DIVIDE
CITY           SKY/WX    TMP DP  RH WIND       PRES   REMARKS
KALISPELL      MOCLDY    43  41  93 CALM      30.25S
MISSOULA       CLEAR     46  39  77 CALM      30.29R
BUTTE          PTCLDY    48  34  59 NW9       30.30R
MULLAN PASS    MOCLDY    43  37  79 SW7       30.30S
* ESSEX        N/A       43  39  86 S1         N/A
* EUREKA APT   PTCLDY    54  41  62 SE10       N/A
* HAMILTON APT PTCLDY    50  37  61 S2        30.29S
* LIBBY APT    PTCLDY    48  39  71 CALM      30.23S
* LINCOLN      N/A       49  38  66 W4G11      N/A
* LOOKOUT PASS N/A       43  40  89 NE1        N/A
* POLSON       N/A       48  42  80 N/A        N/A
* SEELEY LAKE  N/A       45  40  83 NE2        N/A
* THOMP F APT  PTCLDY    44  28  53 N2G7       N/A
$$

MTZ008-052>055-270400-
SOUTHWEST MONTANA
CITY           SKY/WX    TMP DP  RH WIND       PRES   REMARKS
BOZEMAN        MOCLDY    48  36  63 NW6       30.25R
DILLON         MOCLDY    52  34  50 W7        30.28R
* W YELLOWSTON PTCLDY    39  30  70 SW2G7      N/A
* BOULDER HILL N/A       49  29  46 N3G9       N/A
* HOMESTAKE PS N/A       45  33  63 W8G17      N/A
* MONIDA PASS  N/A       43  32  65 SW2        N/A
* RAYNOLDS PAS N/A       39  21  48 SE9        N/A   WCI  33
* WHITEHALL    N/A       56  34  44 W8G16      N/A
* WISE RIVER   N/A       47  34  61 W6G19      N/A
$$

MTZ009>010-012-014-046-048-049-054-270400-
EAST SLOPES AND CENTRAL MONTANA
CITY           SKY/WX    TMP DP  RH WIND       PRES   REMARKS
CUT BANK       PTCLDY    48  37  66 W17       30.08R
GREAT FALLS    PTCLDY    50  36  59 SW10      30.12R
HELENA         CLOUDY    55  37  51 W14G24    30.22R
MALMSTROM AFB  PTCLDY    54  37  53 SW14      30.12R
* CONRAD       MOCLDY    55  39  55 SW20       N/A
* DEARBORN     N/A       55  37  51 VRB4       N/A
* EAST GLACIER N/A       48  37  66 W22G35     N/A
* MONARCH      N/A       48  27  44 W14        N/A
* PENDROY      N/A       52  33  48 W17G25     N/A
* ROGERS PASS  N/A       45  36  71 SE17G31    N/A
* WHITE SULPH  N/A       44  32  63 N2G11      N/A
$$

MTZ011-013-016-021-035-040-045-047-050-051-270400-
NORTH CENTRAL MONTANA
CITY           SKY/WX    TMP DP  RH WIND       PRES   REMARKS
HAVRE          CLOUDY    55  37  51 W12       30.02S
LEWISTOWN      CLOUDY    55  36  49 NW7       30.10R
* N BAR RANCH  CLEAR     54  34  47 NW9G20    30.09R
* CHINOOK      CLOUDY    54  37  53 W7        30.01R
* FORT BENTON  CLOUDY    57  36  46 SW9       30.09R
* CHESTER      N/A       54  37  53 W14G21     N/A
* DENTON       N/A       56  31  39 W9         N/A
* GEYSER       N/A       54  29  38 W21G30     N/A
* JUDITH GAP   N/A       52  32  47 W17G24     N/A
* LOMA         N/A       60  36  41 W14        N/A
$$

MTZ017>020-022>027-061-062-270400-
NORTHEAST MONTANA
CITY           SKY/WX    TMP DP  RH WIND       PRES   REMARKS
GLASGOW        CLOUDY    43  34  71 E15       30.04S
GLENDIVE       CLOUDY    43  32  65 SE6       30.11S
JORDAN         CLOUDY    52  34  50 SE3       30.04R
SIDNEY         CLOUDY    39  30  70 SE7       30.13F WCI  34
WOLF POINT     CLOUDY    43  36  76 NE8       30.09S
* BEAVER HILL  N/A       38  31  76 E14G20     N/A   WCI  30
* CIRCLE       N/A       45  33  63 SE3G8      N/A
* LINDSAY DVD  N/A       41  33  73 E8         N/A
* NAVAJO       N/A       35  31  85 SE7        N/A   WCI  29
* PLENTYWOOD A MOCLDY    39  32  76 SE7       30.10F WCI  34
* POPLAR APT   CLOUDY    39  34  82 E10       30.10S WCI  32
* SACO         N/A       42  34  73 E14        N/A
$$

MTZ028>042-056>058-270400-
SOUTHCENTRAL AND SOUTHEAST MONTANA
CITY           SKY/WX    TMP DP  RH WIND       PRES   REMARKS
BAKER          CLOUDY    39  32  76 SE14G20   30.12S WCI  31
BILLINGS       MOCLDY    59  36  42 NW18      30.08R
LIVINGSTON     CLOUDY    55  34  45 W18       30.21R
MILES CITY     CLOUDY    48  28  46 E9        30.06S
* BIG TIMBER A PTCLDY    54  36  51 SW20G29   30.15R
* FORSYTH APT  CLOUDY    52  39  61 S3        30.05F
* ALZADA       N/A       42  32  68 E3         N/A
* HYSHAM       N/A       52  31  45 SE4        N/A
* LAME DEER    N/A       47  33  58 N/A        N/A
* REED POINT   N/A       59  32  36 W12G20     N/A
* ROSCOE HILL  N/A       54  17  23 W5G10      N/A
$$

REGIONAL REPORTS...DAKOTAS
CITY           SKY/WX    TMP DP  RH WIND       PRES   REMARKS
WILLISTON      CLOUDY    37  27  67 SE7       30.14S WCI  32
DICKINSON      CLOUDY    34  27  76 SE9       30.14F WCI  27
BEACH          CLOUDY    36  32  85 SE13      30.13F WCI  27
CROSBY         CLEAR     32  28  85 SE9       30.15F WCI  24
TIOGA          MOCLDY    30  28  92 SE8       30.18F WCI  22
WATFORD CITY   MOCLDY    36  27  70 SE8       30.13F WCI  30
BISMARCK       PTCLDY    27  18  69 E5        30.25R WCI  21
GRAND FORKS    CLEAR     19  16  88 N5        30.31S WCI  12
FARGO          CLEAR     21  10  62 NW9       30.30R WCI  11
BUFFALO SD     CLOUDY    37  32  82 SE10      30.09R WCI  30
RAPID CITY     CLOUDY    36  27  70 SE10      30.16R WCI  29
$$

REGIONAL REPORTS...WYOMING/IDAHO/WASHINGTON
CITY           SKY/WX    TMP DP  RH WIND       PRES   REMARKS
GILLETTE       LGT RAIN  46  36  68 E6        30.11R
SHERIDAN       CLOUDY    48  37  66 W7        30.10R
CODY           PTCLDY    54  30  40 W15G25    30.15F
YELLOWSTONE LA PTCLDY    34  30  85 CALM      30.38S
SALMON         CLEAR    N/A N/A N/A S5        30.28R
MULLAN PASS    MOCLDY    43  37  79 SW7       30.30S
SAND POINT     CLOUDY    50  50 100 CALM      30.23F
SPOKANE        MOCLDY    57  45  64 E3        30.21F
$$

REGIONAL REPORTS...ALBERTA
CITY           SKY/WX    TMP DP  RH WIND       PRES   REMARKS
CALGARY        MOCLDY    57  32  39 W15       29.99R
LETHBRIDGE     MOCLDY    55  39  55 W25G36    30.02R
MEDICINE HAT   CLOUDY    50  41  71 SW6       29.97S
EDMONTON       MOCLDY    39  34  82 S8        29.91F WCI  33
WATERTON GATE  N/A       50  37  61 SW26G36    N/A
CARDSTON       N/A       54  37  53 W18G26     N/A
MILK RIVER     N/A       50  37  61 W15        N/A
$$

REGIONAL REPORTS...SASKATCHEWAN
CITY           SKY/WX    TMP DP  RH WIND       PRES   REMARKS
SWIFT CURRENT  CLOUDY    41  32  70 SE8       29.97F
REGINA         MOCLDY    34  30  85 SE16      30.10F WCI  24
VAL MARIE      N/A       45  34  65 S9         N/A
ASSINIBOIA     N/A       36  30  79 SE10       N/A   WCI  29
CORONACH       N/A       36  32  85 SE7        N/A   WCI  30

$$



USA.gov is the U.S. government's official web portal to all federal, state and local government web resources and services.